QPF
0.00 0.00 0.01 0.01 0.01 0.02 0.01 0.00 0.00 0.00 0.00 0.00 0.00 0.00 0.00 0.00 0.00 0.00 0.00 0.00 0.00 0.00 0.00 0.00 0.00 0.00 0.00 0.00 0.00 0.00 0.00 0.00 0.00 0.00 0.00 0.00 0.00 0.00 0.00 0.00 0.00 0.00 0.00 0.00 0.00 0.00 0.00 0.00 0.00
0.00 0.00 0.01 0.01 0.01 0.01 0.01 0.00 0.00 0.00 0.00 0.00 0.00 0.00 0.00 0.00 0.00 0.00 0.00 0.00 0.00 0.00 0.00 0.00 0.00 0.00 0.00 0.00 0.00 0.00 0.00 0.00 0.00 0.00 0.00 0.00 0.00 0.00 0.00 0.00 0.00 0.00 0.00 0.00 0.00 0.00 0.00 0.00 0.00
0.00 0.00 0.00 0.01 0.01 0.01 0.01 0.00 0.00 0.00 0.00 0.00 0.00 0.00 0.00 0.00 0.00 0.00 0.00 0.00 0.00 0.00 0.00 0.00 0.00 0.00 0.00 0.00 0.00 0.00 0.00 0.00 0.00 0.00 0.00 0.00 0.00 0.00 0.00 0.00 0.00 0.00 0.00 0.00 0.00 0.00 0.00 0.00 0.00
0.00 0.00 0.00 0.00 0.00 0.00 0.00 0.00 0.00 0.00 0.00 0.00 0.00 0.00 0.00 0.00 0.00 0.00 0.00 0.00 0.00 0.00 0.00 0.00 0.00 0.00 0.00 0.00 0.00 0.00 0.00 0.00 0.00 0.00 0.00 0.00 0.00 0.00 0.00 0.00 0.00 0.00 0.00 0.00 0.00 0.00 0.00 0.00 0.00
0.00 0.00 0.00 0.00 0.00 0.00 0.00 0.00 0.00 0.00 0.00 0.00 0.00 0.00 0.00 0.00 0.00 0.00 0.00 0.00 0.00 0.00 0.00 0.00 0.00 0.00 0.00 0.00 0.00 0.00 0.00 0.00 0.00 0.00 0.00 0.00 0.00 0.00 0.00 0.00 0.00 0.00 0.00 0.00 0.00 0.00 0.00 0.00 0.00
0.00 0.00 0.00 0.00 0.00 0.00 0.00 0.00 0.00 0.00 0.00 0.00 0.00 0.00 0.00 0.00 0.00 0.00 0.00 0.00 0.00 0.00 0.00 0.00 0.00 0.00 0.00 0.00 0.00 0.00 0.00 0.00 0.00 0.00 0.00 0.00 0.00 0.00 0.00 0.00 0.00 0.00 0.00 0.00 0.00 0.00 0.00 0.00 0.00
0.00 0.00 0.00 0.00 0.00 0.00 0.00 0.00 0.00 0.00 0.00 0.00 0.00 0.00 0.00 0.00 0.00 0.00 0.00 0.00 0.00 0.00 0.00 0.00 0.00 0.00 0.00 0.00 0.00 0.00 0.00 0.00 0.00 0.00 0.00 0.00 0.00 0.00 0.00 0.00 0.00 0.00 0.00 0.00 0.00 0.00 0.00 0.00 0.00
0.00 0.00 0.00 0.00 0.00 0.00 0.00 0.00 0.00 0.00 0.00 0.00 0.00 0.00 0.00 0.00 0.00 0.00 0.00 0.00 0.00 0.00 0.00 0.00 0.00 0.00 0.00 0.00 0.00 0.00 0.00 0.00 0.00 0.00 0.00 0.00 0.00 0.00 0.00 0.00 0.00 0.00 0.00 0.00 0.00 0.00 0.00 0.00 0.00
0.00 0.00 0.00 0.00 0.00 0.00 0.00 0.00 0.00 0.00 0.00 0.00 0.00 0.00 0.00 0.00 0.00 0.00 0.00 0.00 0.00 0.00 0.00 0.00 0.00 0.00 0.00 0.00 0.00 0.00 0.00 0.00 0.00 0.00 0.00 0.00 0.00 0.00 0.00 0.00 0.01 0.01 0.02 0.02 0.01 0.01 0.01 0.01 0.00
0.00 0.00 0.00 0.00 0.00 0.00 0.00 0.00 0.00 0.00 0.00 0.00 0.00 0.00 0.00 0.00 0.00 0.00 0.00 0.00 0.00 0.00 0.00 0.00 0.01 0.00 0.00 0.00 0.00 0.00 0.01 0.00 0.00 0.00 0.00 0.00 0.00 0.00 0.00 0.00 0.02 0.05 0.08 0.08 0.08 0.08 0.05 0.02 0.01
0.00 0.00 0.00 0.00 0.00 0.00 0.00 0.00 0.00 0.00 0.00 0.00 0.00 0.00 0.00 0.00 0.00 0.00 0.00 0.00 0.00 0.00 0.01 0.01 0.01 0.01 0.01 0.01 0.01 0.01 0.01 0.01 0.01 0.00 0.01 0.01 0.01 0.01 0.00 0.00 0.01 0.05 0.11 0.09 0.09 0.12 0.08 0.06 0.05
0.00 0.00 0.00 0.00 0.00 0.00 0.00 0.00 0.00 0.00 0.00 0.00 0.00 0.00 0.00 0.00 0.00 0.00 0.00 0.00 0.00 0.01 0.03 0.04 0.03 0.02 0.02 0.02 0.01 0.01 0.02 0.02 0.01 0.01 0.02 0.02 0.03 0.04 0.02 0.02 0.03 0.05 0.08 0.11 0.11 0.11 0.11 0.12 0.11
0.00 0.00 0.00 0.00 0.00 0.00 0.00 0.00 0.00 0.00 0.00 0.00 0.00 0.00 0.00 0.00 0.00 0.00 0.00 0.01 0.01 0.04 0.09 0.13 0.12 0.10 0.09 0.07 0.05 0.04 0.05 0.05 0.05 0.06 0.06 0.07 0.09 0.09 0.09 0.08 0.07 0.08 0.09 0.10 0.14 0.13 0.13 0.13 0.16
0.00 0.00 0.00 0.00 0.00 0.00 0.00 0.00 0.00 0.00 0.00 0.00 0.00 0.00 0.00 0.00 0.00 0.01 0.01 0.02 0.04 0.09 0.17 0.25 0.28 0.33 0.30 0.23 0.18 0.13 0.11 0.12 0.11 0.13 0.15 0.13 0.12 0.16 0.19 0.17 0.14 0.10 0.09 0.09 0.10 0.09 0.10 0.10 0.12
0.00 0.00 0.00 0.00 0.00 0.00 0.00 0.00 0.00 0.00 0.00 0.00 0.00 0.01 0.01 0.01 0.02 0.02 0.04 0.05 0.10 0.17 0.24 0.30 0.39 0.52 0.54 0.46 0.39 0.30 0.26 0.23 0.21 0.23 0.24 0.22 0.20 0.20 0.21 0.18 0.13 0.09 0.07 0.06 0.05 0.05 0.05 0.04 0.03
0.00 0.00 0.00 0.00 0.00 0.00 0.00 0.00 0.00 0.00 0.00 0.00 0.00 0.01 0.02 0.03 0.04 0.04 0.06 0.09 0.16 0.23 0.28 0.36 0.46 0.52 0.55 0.49 0.48 0.44 0.43 0.40 0.34 0.31 0.31 0.28 0.26 0.23 0.21 0.15 0.09 0.05 0.04 0.03 0.03 0.02 0.02 0.01 0.01
0.00 0.00 0.00 0.00 0.00 0.00 0.00 0.00 0.00 0.00 0.00 0.00 0.01 0.02 0.03 0.05 0.07 0.08 0.10 0.14 0.20 0.25 0.30 0.40 0.53 0.56 0.58 0.62 0.64 0.67 0.64 0.52 0.43 0.41 0.38 0.34 0.29 0.23 0.18 0.12 0.07 0.04 0.02 0.01 0.01 0.01 0.00 0.00 0.00
0.00 0.00 0.00 0.00 0.00 0.00 0.00 0.00 0.00 0.00 0.00 0.01 0.02 0.03 0.04 0.06 0.09 0.11 0.13 0.19 0.22 0.25 0.29 0.31 0.39 0.43 0.51 0.65 0.63 0.67 0.69 0.69 0.62 0.54 0.42 0.40 0.32 0.25 0.18 0.10 0.05 0.03 0.02 0.01 0.00 0.00 0.00 0.00 0.00
0.00 0.00 0.00 0.00 0.00 0.00 0.00 0.00 0.00 0.00 0.01 0.01 0.02 0.04 0.06 0.07 0.10 0.13 0.15 0.17 0.18 0.16 0.18 0.18 0.22 0.25 0.29 0.39 0.43 0.50 0.54 0.53 0.52 0.50 0.45 0.43 0.35 0.28 0.20 0.12 0.06 0.02 0.01 0.00 0.00 0.00 0.00 0.00 0.00
0.00 0.00 0.00 0.00 0.00 0.00 0.00 0.00 0.00 0.01 0.01 0.01 0.02 0.04 0.06 0.08 0.10 0.13 0.14 0.12 0.10 0.08 0.08 0.07 0.08 0.10 0.17 0.26 0.32 0.35 0.42 0.40 0.35 0.33 0.30 0.28 0.27 0.23 0.19 0.12 0.05 0.02 0.01 0.00 0.00 0.00 0.00 0.00 0.00
0.00 0.00 0.00 0.00 0.00 0.00 0.00 0.00 0.00 0.01 0.01 0.01 0.02 0.04 0.05 0.07 0.07 0.08 0.08 0.06 0.05 0.05 0.04 0.04 0.03 0.03 0.04 0.06 0.10 0.15 0.21 0.22 0.20 0.20 0.18 0.19 0.20 0.16 0.13 0.09 0.05 0.02 0.01 0.00 0.00 0.00 0.00 0.00 0.00
0.00 0.00 0.00 0.00 0.00 0.00 0.00 0.01 0.01 0.01 0.01 0.02 0.03 0.04 0.04 0.05 0.05 0.05 0.04 0.03 0.03 0.02 0.02 0.02 0.01 0.02 0.03 0.04 0.09 0.12 0.14 0.16 0.18 0.17 0.16 0.17 0.17 0.16 0.14 0.12 0.08 0.04 0.02 0.01 0.01 0.00 0.00 0.00 0.00
0.00 0.00 0.00 0.00 0.00 0.00 0.00 0.01 0.01 0.01 0.02 0.02 0.02 0.03 0.03 0.03 0.03 0.02 0.01 0.01 0.01 0.01 0.01 0.01 0.01 0.01 0.03 0.04 0.06 0.09 0.12 0.13 0.15 0.16 0.15 0.18 0.20 0.20 0.18 0.15 0.12 0.08 0.05 0.04 0.02 0.01 0.00 0.00 0.00
0.00 0.00 0.00 0.00 0.00 0.00 0.00 0.01 0.01 0.01 0.01 0.02 0.02 0.02 0.02 0.01 0.01 0.00 0.00 0.00 0.00 0.00 0.00 0.01 0.01 0.01 0.02 0.03 0.04 0.05 0.07 0.09 0.10 0.10 0.11 0.13 0.16 0.18 0.19 0.19 0.16 0.13 0.10 0.08 0.05 0.03 0.01 0.00 0.00
0.01 0.01 0.00 0.00 0.00 0.00 0.01 0.01 0.01 0.01 0.01 0.01 0.01 0.01 0.01 0.00 0.00 0.00 0.00 0.00 0.00 0.00 0.00 0.00 0.00 0.00 0.01 0.01 0.02 0.02 0.02 0.03 0.04 0.04 0.05 0.07 0.08 0.10 0.12 0.14 0.15 0.15 0.13 0.11 0.09 0.07 0.04 0.02 0.01
0.02 0.01 0.01 0.01 0.01 0.01 0.01 0.02 0.01 0.01 0.01 0.01 0.00 0.00 0.00 0.00 0.00 0.00 0.00 0.00 0.00 0.00 0.00 0.00 0.00 0.00 0.00 0.00 0.00 0.00 0.00 0.01 0.01 0.01 0.02 0.03 0.03 0.05 0.06 0.07 0.08 0.11 0.14 0.14 0.12 0.09 0.08 0.05 0.03
0.02 0.02 0.02 0.02 0.02 0.01 0.01 0.02 0.01 0.01 0.01 0.01 0.01 0.00 0.00 0.00 0.00 0.00 0.00 0.00 0.00 0.00 0.00 0.00 0.00 0.00 0.00 0.00 0.00 0.00 0.00 0.00 0.00 0.00 0.00 0.01 0.01 0.02 0.03 0.04 0.05 0.07 0.09 0.11 0.11 0.11 0.10 0.09 0.06
0.01 0.01 0.01 0.02 0.02 0.02 0.03 0.03 0.03 0.02 0.01 0.01 0.01 0.01 0.00 0.00 0.00 0.00 0.00 0.00 0.00 0.00 0.00 0.00 0.00 0.00 0.00 0.00 0.00 0.00 0.00 0.00 0.00 0.00 0.00 0.00 0.00 0.01 0.01 0.02 0.03 0.05 0.06 0.08 0.08 0.08 0.09 0.09 0.07
0.00 0.01 0.01 0.02 0.03 0.03 0.02 0.03 0.03 0.01 0.01 0.01 0.01 0.01 0.00 0.00 0.00 0.00 0.00 0.00 0.00 0.00 0.00 0.00 0.00 0.00 0.00 0.00 0.00 0.00 0.00 0.00 0.00 0.00 0.00 0.00 0.00 0.00 0.00 0.00 0.01 0.03 0.04 0.06 0.07 0.08 0.08 0.08 0.08
0.01 0.01 0.01 0.02 0.02 0.02 0.01 0.01 0.01 0.01 0.00 0.00 0.01 0.00 0.00 0.00 0.00 0.00 0.00 0.00 0.00 0.00 0.00 0.00 0.00 0.00 0.00 0.00 0.00 0.00 0.00 0.00 0.00 0.00 0.00 0.00 0.00 0.00 0.00 0.00 0.00 0.01 0.02 0.03 0.05 0.07 0.09 0.09 0.08
MSLP
1010.28 1011.39 1012.46 1013.32 1013.84 1013.93 1013.60 1012.92 1012.05 1011.16 1010.39 1009.86 1009.60 1009.57 1009.67 1009.78 1009.81 1009.69 1009.42 1009.08 1008.76 1008.57 1008.59 1008.86 1009.35 1009.99 1010.66 1011.26 1011.73 1012.03 1012.19 1012.27 1012.33 1012.46 1012.69 1013.03 1013.43 1013.85 1014.22 1014.51 1014.68 1014.77 1014.79 1014.81 1014.84 1014.91 1015.03 1015.18 1015.32
1010.56 1011.72 1012.78 1013.55 1013.90 1013.77 1013.19 1012.27 1011.17 1010.09 1009.20 1008.59 1008.30 1008.28 1008.42 1008.61 1008.74 1008.75 1008.63 1008.44 1008.28 1008.23 1008.38 1008.74 1009.29 1009.96 1010.65 1011.26 1011.72 1012.04 1012.22 1012.33 1012.44 1012.61 1012.86 1013.20 1013.58 1013.95 1014.28 1014.51 1014.65 1014.72 1014.76 1014.79 1014.87 1014.98 1015.13 1015.29 1015.44
1010.96 1012.14 1013.13 1013.77 1013.93 1013.59 1012.79 1011.67 1010.42 1009.23 1008.27 1007.63 1007.34 1007.34 1007.54 1007.79 1008.00 1008.10 1008.10 1008.03 1008.00 1008.07 1008.32 1008.75 1009.35 1010.03 1010.72 1011.31 1011.77 1012.09 1012.29 1012.42 1012.56 1012.74 1013.00 1013.31 1013.65 1013.98 1014.24 1014.42 1014.54 1014.60 1014.66 1014.73 1014.85 1015.02 1015.21 1015.39 1015.54
1011.45 1012.59 1013.48 1013.97 1013.95 1013.42 1012.46 1011.21 1009.87 1008.64 1007.68 1007.07 1006.81 1006.85 1007.09 1007.39 1007.65 1007.81 1007.88 1007.91 1007.96 1008.12 1008.43 1008.91 1009.53 1010.22 1010.88 1011.46 1011.91 1012.22 1012.42 1012.57 1012.72 1012.90 1013.14 1013.42 1013.71 1013.97 1014.17 1014.32 1014.40 1014.47 1014.55 1014.67 1014.84 1015.05 1015.28 1015.49 1015.65
1011.94 1013.01 1013.77 1014.09 1013.90 1013.23 1012.16 1010.86 1009.52 1008.33 1007.43 1006.88 1006.69 1006.78 1007.04 1007.36 1007.65 1007.84 1007.95 1008.02 1008.13 1008.34 1008.70 1009.21 1009.84 1010.51 1011.15 1011.70 1012.13 1012.43 1012.63 1012.78 1012.93 1013.10 1013.32 1013.56 1013.79 1013.99 1014.14 1014.24 1014.30 1014.37 1014.47 1014.63 1014.84 1015.09 1015.35 1015.58 1015.75
1012.35 1013.30 1013.90 1014.05 1013.72 1012.94 1011.83 1010.55 1009.28 1008.20 1007.41 1006.97 1006.85 1006.99 1007.28 1007.60 1007.88 1008.07 1008.20 1008.29 1008.44 1008.69 1009.07 1009.59 1010.21 1010.86 1011.48 1012.00 1012.41 1012.70 1012.89 1013.04 1013.19 1013.35 1013.54 1013.74 1013.92 1014.07 1014.17 1014.23 1014.28 1014.34 1014.45 1014.62 1014.86 1015.13 1015.40 1015.63 1015.80
1012.57 1013.36 1013.79 1013.78 1013.33 1012.49 1011.40 1010.19 1009.04 1008.10 1007.46 1007.14 1007.12 1007.31 1007.61 1007.93 1008.20 1008.39 1008.52 1008.64 1008.81 1009.08 1009.48 1010.01 1010.61 1011.24 1011.82 1012.31 1012.69 1012.97 1013.16 1013.31 1013.45 1013.61 1013.78 1013.95 1014.10 1014.21 1014.27 1014.29 1014.31 1014.36 1014.46 1014.62 1014.85 1015.11 1015.37 1015.59 1015.75
1012.56 1013.17 1013.41 1013.26 1012.71 1011.85 1010.80 1009.71 1008.72 1007.95 1007.46 1007.27 1007.33 1007.57 1007.89 1008.21 1008.48 1008.68 1008.83 1008.97 1009.18 1009.47 1009.89 1010.41 1010.99 1011.57 1012.11 1012.56 1012.91 1013.16 1013.34 1013.50 1013.65 1013.80 1013.97 1014.13 1014.26 1014.34 1014.38 1014.38 1014.36 1014.38 1014.45 1014.58 1014.77 1015.00 1015.23 1015.43 1015.57
1012.33 1012.74 1012.81 1012.52 1011.91 1011.06 1010.09 1009.13 1008.30 1007.70 1007.36 1007.28 1007.42 1007.70 1008.04 1008.38 1008.66 1008.89 1009.08 1009.28 1009.52 1009.84 1010.26 1010.76 1011.30 1011.82 1012.29 1012.68 1012.98 1013.21 1013.38 1013.53 1013.68 1013.86 1014.03 1014.20 1014.33 1014.41 1014.43 1014.41 1014.37 1014.35 1014.37 1014.45 1014.59 1014.77 1014.96 1015.12 1015.24
1011.93 1012.17 1012.08 1011.69 1011.04 1010.24 1009.38 1008.56 1007.89 1007.43 1007.22 1007.23 1007.42 1007.73 1008.10 1008.46 1008.78 1009.05 1009.30 1009.55 1009.84 1010.20 1010.60 1011.06 1011.53 1011.96 1012.34 1012.65 1012.87 1013.04 1013.19 1013.33 1013.50 1013.69 1013.90 1014.09 1014.24 1014.34 1014.36 1014.34 1014.28 1014.22 1014.20 1014.22 1014.30 1014.42 1014.56 1014.69 1014.79
1011.49 1011.57 1011.37 1010.92 1010.29 1009.57 1008.82 1008.15 1007.63 1007.29 1007.17 1007.24 1007.46 1007.78 1008.16 1008.54 1008.90 1009.23 1009.54 1009.86 1010.19 1010.54 1010.92 1011.31 1011.67 1011.99 1012.25 1012.43 1012.57 1012.67 1012.77 1012.90 1013.07 1013.28 1013.52 1013.75 1013.94 1014.07 1014.13 1014.11 1014.06 1013.98 1013.92 1013.90 1013.92 1013.99 1014.09 1014.19 1014.28
1011.13 1011.10 1010.83 1010.39 1009.82 1009.21 1008.61 1008.09 1007.69 1007.46 1007.39 1007.47 1007.68 1007.99 1008.35 1008.74 1009.13 1009.51 1009.87 1010.23 1010.58 1010.91 1011.23 1011.52 1011.76 1011.93 1012.04 1012.09 1012.10 1012.12 1012.16 1012.26 1012.42 1012.65 1012.92 1013.19 1013.43 1013.61 1013.72 1013.75 1013.72 1013.65 1013.58 1013.53 1013.52 1013.56 1013.62 1013.71 1013.79
1010.94 1010.85 1010.59 1010.20 1009.75 1009.28 1008.85 1008.48 1008.20 1008.03 1007.98 1008.05 1008.21 1008.47 1008.78 1009.15 1009.53 1009.93 1010.32 1010.68 1011.02 1011.31 1011.54 1011.71 1011.79 1011.81 1011.76 1011.66 1011.56 1011.48 1011.45 1011.51 1011.66 1011.88 1012.17 1012.47 1012.77 1013.01 1013.17 1013.26 1013.28 1013.25 1013.21 1013.17 1013.16 1013.18 1013.23 1013.30 1013.38
1010.98 1010.89 1010.68 1010.41 1010.12 1009.84 1009.59 1009.37 1009.20 1009.08 1009.02 1009.02 1009.10 1009.26 1009.49 1009.79 1010.14 1010.51 1010.88 1011.22 1011.50 1011.71 1011.84 1011.87 1011.81 1011.67 1011.47 1011.25 1011.04 1010.87 1010.77 1010.78 1010.89 1011.10 1011.38 1011.70 1012.03 1012.32 1012.55 1012.71 1012.80 1012.84 1012.85 1012.85 1012.87 1012.91 1012.97 1013.04 1013.12
1011.22 1011.16 1011.05 1010.94 1010.84 1010.77 1010.71 1010.64 1010.57 1010.47 1010.38 1010.30 1010.27 1010.30 1010.42 1010.62 1010.89 1011.19 1011.50 1011.77 1011.97 1012.08 1012.09 1012.00 1011.81 1011.55 1011.24 1010.93 1010.64 1010.40 1010.25 1010.21 1010.27 1010.43 1010.69 1010.99 1011.33 1011.65 1011.93 1012.16 1012.34 1012.46 1012.54 1012.61 1012.68 1012.75 1012.84 1012.92 1013.00
1011.57 1011.57 1011.59 1011.65 1011.76 1011.91 1012.03 1012.12 1012.12 1012.04 1011.90 1011.72 1011.57 1011.46 1011.44 1011.52 1011.67 1011.88 1012.09 1012.27 1012.38 1012.39 1012.29 1012.09 1011.82 1011.48 1011.11 1010.76 1010.43 1010.16 1009.98 1009.89 1009.90 1010.00 1010.19 1010.45 1010.75 1011.07 1011.38 1011.66 1011.91 1012.11 1012.28 1012.42 1012.56 1012.68 1012.80 1012.91 1012.99
1011.91 1011.99 1012.15 1012.39 1012.71 1013.05 1013.36 1013.57 1013.65 1013.57 1013.37 1013.09 1012.81 1012.57 1012.41 1012.35 1012.39 1012.49 1012.60 1012.68 1012.68 1012.60 1012.42 1012.16 1011.83 1011.47 1011.10 1010.76 1010.45 1010.19 1009.99 1009.86 1009.82 1009.84 1009.95 1010.12 1010.35 1010.63 1010.93 1011.23 1011.53 1011.80 1012.04 1012.27 1012.46 1012.64 1012.80 1012.94 1013.03
1012.15 1012.31 1012.60 1013.02 1013.53 1014.05 1014.51 1014.82 1014.94 1014.85 1014.59 1014.23 1013.83 1013.47 1013.19 1013.03 1012.96 1012.96 1012.97 1012.96 1012.89 1012.73 1012.49 1012.19 1011.85 1011.52 1011.20 1010.91 1010.65 1010.44 1010.26 1010.11 1010.01 1009.96 1009.96 1010.02 1010.15 1010.35 1010.60 1010.89 1011.20 1011.51 1011.81 1012.09 1012.34 1012.57 1012.77 1012.93 1013.05
1012.21 1012.45 1012.87 1013.45 1014.12 1014.80 1015.37 1015.76 1015.90 1015.79 1015.48 1015.03 1014.55 1014.10 1013.74 1013.49 1013.35 1013.28 1013.22 1013.14 1013.00 1012.79 1012.52 1012.21 1011.89 1011.61 1011.36 1011.16 1010.99 1010.84 1010.70 1010.56 1010.41 1010.28 1010.17 1010.11 1010.13 1010.22 1010.40 1010.64 1010.92 1011.24 1011.55 1011.86 1012.15 1012.41 1012.65 1012.84 1012.99
1012.09 1012.43 1012.98 1013.70 1014.51 1015.29 1015.95 1016.36 1016.51 1016.36 1016.00 1015.50 1014.95 1014.45 1014.04 1013.76 1013.59 1013.48 1013.39 1013.26 1013.08 1012.83 1012.53 1012.22 1011.94 1011.71 1011.54 1011.43 1011.36 1011.29 1011.20 1011.07 1010.90 1010.71 1010.51 1010.35 1010.24 1010.23 1010.30 1010.47 1010.71 1010.98 1011.28 1011.59 1011.88 1012.16 1012.40 1012.62 1012.81
1011.87 1012.31 1012.98 1013.83 1014.75 1015.61 1016.30 1016.72 1016.84 1016.65 1016.23 1015.68 1015.11 1014.59 1014.18 1013.90 1013.73 1013.63 1013.52 1013.38 1013.16 1012.89 1012.57 1012.26 1011.99 1011.79 1011.69 1011.66 1011.66 1011.67 1011.64 1011.54 1011.37 1011.15 1010.89 1010.64 1010.44 1010.33 1010.31 1010.39 1010.55 1010.77 1011.02 1011.28 1011.55 1011.80 1012.05 1012.28 1012.50
1011.64 1012.21 1013.01 1013.97 1014.97 1015.88 1016.57 1016.96 1017.02 1016.78 1016.31 1015.72 1015.13 1014.62 1014.24 1013.99 1013.86 1013.78 1013.68 1013.53 1013.30 1012.99 1012.65 1012.31 1012.03 1011.84 1011.76 1011.77 1011.83 1011.90 1011.92 1011.87 1011.72 1011.49 1011.22 1010.93 1010.67 1010.49 1010.39 1010.39 1010.47 1010.61 1010.79 1010.99 1011.20 1011.41 1011.63 1011.85 1012.08
1011.53 1012.23 1013.15 1014.21 1015.27 1016.19 1016.86 1017.20 1017.19 1016.88 1016.35 1015.74 1015.14 1014.65 1014.30 1014.10 1014.02 1013.97 1013.89 1013.74 1013.48 1013.14 1012.75 1012.36 1012.04 1011.83 1011.74 1011.75 1011.84 1011.94 1012.01 1012.00 1011.89 1011.70 1011.44 1011.15 1010.89 1010.67 1010.53 1010.47 1010.47 1010.53 1010.63 1010.74 1010.87 1011.02 1011.18 1011.37 1011.60
1011.63 1012.45 1013.49 1014.62 1015.71 1016.62 1017.24 1017.51 1017.42 1017.03 1016.45 1015.80 1015.20 1014.72 1014.41 1014.25 1014.20 1014.19 1014.13 1013.97 1013.69 1013.31 1012.86 1012.41 1012.03 1011.76 1011.62 1011.60 1011.68 1011.79 1011.89 1011.92 1011.86 1011.72 1011.52 1011.28 1011.04 1010.83 1010.68 1010.58 1010.53 1010.53 1010.54 1010.57 1010.60 1010.66 1010.76 1010.90 1011.09
1011.98 1012.91 1014.02 1015.20 1016.29 1017.16 1017.71 1017.89 1017.72 1017.25 1016.61 1015.93 1015.32 1014.85 1014.56 1014.43 1014.40 1014.40 1014.34 1014.17 1013.87 1013.45 1012.95 1012.43 1011.98 1011.64 1011.43 1011.36 1011.40 1011.49 1011.59 1011.66 1011.65 1011.58 1011.44 1011.27 1011.09 1010.92 1010.78 1010.68 1010.61 1010.55 1010.50 1010.44 1010.40 1010.37 1010.38 1010.45 1010.59
1012.56 1013.55 1014.71 1015.88 1016.94 1017.74 1018.21 1018.30 1018.05 1017.51 1016.83 1016.12 1015.49 1015.02 1014.72 1014.60 1014.57 1014.56 1014.49 1014.30 1013.98 1013.52 1012.98 1012.41 1011.90 1011.48 1011.21 1011.07 1011.05 1011.10 1011.18 1011.26 1011.28 1011.26 1011.20 1011.09 1010.98 1010.88 1010.79 1010.71 1010.64 1010.55 1010.45 1010.34 1010.22 1010.11 1010.05 1010.05 1010.12
1013.30 1014.31 1015.45 1016.58 1017.56 1018.28 1018.65 1018.66 1018.33 1017.75 1017.03 1016.30 1015.66 1015.18 1014.87 1014.72 1014.67 1014.63 1014.53 1014.33 1013.98 1013.50 1012.93 1012.34 1011.78 1011.32 1010.98 1010.77 1010.68 1010.67 1010.71 1010.76 1010.79 1010.79 1010.78 1010.74 1010.70 1010.66 1010.62 1010.58 1010.53 1010.45 1010.34 1010.20 1010.03 1009.88 1009.75 1009.68 1009.70
1014.11 1015.08 1016.15 1017.18 1018.05 1018.66 1018.94 1018.88 1018.51 1017.90 1017.18 1016.45 1015.81 1015.31 1014.98 1014.79 1014.69 1014.60 1014.47 1014.23 1013.87 1013.39 1012.83 1012.23 1011.66 1011.16 1010.77 1010.49 1010.32 1010.23 1010.20 1010.19 1010.19 1010.19 1010.19 1010.19 1010.20 1010.22 1010.24 1010.25 1010.24 1010.19 1010.09 1009.96 1009.78 1009.60 1009.45 1009.34 1009.30
1014.90 1015.78 1016.72 1017.61 1018.34 1018.83 1019.02 1018.91 1018.52 1017.93 1017.24 1016.54 1015.91 1015.41 1015.05 1014.81 1014.65 1014.50 1014.32 1014.04 1013.67 1013.21 1012.66 1012.09 1011.53 1011.02 1010.59 1010.25 1009.99 1009.81 1009.68 1009.58 1009.52 1009.47 1009.45 1009.45 1009.49 1009.55 1009.62 1009.69 1009.73 1009.73 1009.68 1009.58 1009.43 1009.27 1009.11 1008.99 1008.92
1015.60 1016.35 1017.13 1017.85 1018.42 1018.78 1018.90 1018.75 1018.38 1017.84 1017.22 1016.58 1015.99 1015.50 1015.11 1014.82 1014.59 1014.37 1014.12 1013.82 1013.44 1012.98 1012.47 1011.93 1011.39 1010.89 1010.43 1010.03 1009.69 1009.40 1009.15 1008.94 1008.77 1008.65 1008.58 1008.57 1008.60 1008.69 1008.80 1008.92 1009.02 1009.09 1009.10 1009.05 1008.97 1008.85 1008.72 1008.62 1008.55
Thickness
5826 5822 5818 5807 5792 5781 5783 5802 5816 5821 5826 5836 5840 5835 5827 5820 5812 5812 5836 5844 5842 5834 5828 5823 5818 5812 5808 5803 5799 5796 5793 5791 5788 5786 5784 5781 5779 5777 5775 5773 5771 5769 5768 5765 5763 5761 5759 5758 5756
5826 5821 5812 5800 5785 5775 5789 5813 5818 5825 5835 5843 5842 5838 5830 5827 5831 5831 5835 5839 5838 5832 5826 5821 5816 5811 5806 5802 5798 5794 5792 5789 5787 5784 5782 5780 5777 5775 5773 5771 5769 5767 5766 5764 5762 5761 5759 5757 5755
5824 5821 5803 5791 5785 5783 5798 5819 5825 5835 5844 5843 5837 5837 5832 5828 5833 5833 5838 5838 5834 5828 5823 5819 5815 5810 5805 5800 5797 5793 5791 5788 5785 5783 5780 5778 5776 5774 5771 5769 5767 5766 5764 5762 5761 5760 5758 5756 5754
5821 5809 5800 5786 5788 5802 5813 5826 5833 5834 5841 5844 5837 5829 5835 5843 5841 5840 5841 5837 5831 5825 5821 5817 5813 5808 5804 5799 5796 5792 5789 5786 5783 5781 5778 5776 5774 5772 5770 5767 5765 5763 5762 5760 5759 5758 5757 5755 5753
5817 5801 5788 5778 5789 5808 5823 5832 5837 5832 5834 5838 5835 5826 5829 5841 5846 5843 5839 5835 5829 5823 5819 5815 5811 5806 5801 5797 5793 5790 5787 5783 5780 5778 5775 5773 5771 5769 5767 5765 5763 5761 5759 5758 5757 5756 5755 5753 5752
5803 5793 5776 5773 5789 5808 5823 5833 5835 5832 5834 5837 5834 5826 5828 5838 5838 5837 5837 5832 5828 5822 5817 5812 5808 5803 5798 5794 5790 5786 5783 5780 5777 5774 5772 5770 5768 5766 5764 5762 5760 5759 5757 5756 5755 5754 5752 5751 5750
5797 5785 5779 5784 5787 5800 5820 5832 5830 5828 5829 5835 5838 5825 5826 5831 5834 5834 5832 5828 5823 5818 5813 5809 5804 5800 5795 5790 5786 5783 5779 5776 5774 5771 5768 5766 5764 5762 5760 5758 5757 5755 5754 5753 5752 5751 5750 5749 5748
5805 5787 5783 5780 5785 5796 5820 5828 5833 5831 5831 5844 5842 5826 5824 5832 5834 5829 5824 5820 5816 5812 5808 5805 5801 5797 5792 5788 5784 5780 5777 5774 5771 5767 5764 5762 5760 5759 5757 5755 5754 5753 5752 5750 5749 5748 5747 5746 5745
5807 5776 5769 5781 5788 5799 5817 5819 5830 5840 5836 5839 5842 5840 5841 5840 5830 5820 5813 5809 5806 5805 5803 5801 5798 5793 5789 5785 5781 5778 5774 5770 5767 5764 5761 5758 5756 5755 5753 5751 5750 5749 5749 5748 5747 5746 5745 5744 5743
5791 5767 5778 5795 5803 5806 5813 5817 5823 5826 5825 5828 5833 5837 5838 5833 5823 5814 5808 5804 5802 5800 5799 5796 5793 5788 5784 5779 5776 5773 5769 5766 5763 5760 5757 5755 5753 5751 5749 5747 5746 5746 5746 5745 5745 5744 5743 5742 5741
5790 5780 5792 5802 5810 5811 5811 5817 5825 5818 5813 5822 5826 5827 5826 5823 5817 5811 5806 5802 5798 5795 5791 5788 5785 5781 5777 5773 5770 5767 5764 5761 5758 5755 5752 5750 5749 5747 5745 5744 5743 5742 5742 5742 5743 5742 5741 5740 5739
5789 5792 5798 5804 5813 5811 5812 5815 5815 5814 5818 5830 5829 5826 5820 5815 5810 5805 5799 5796 5792 5788 5784 5782 5778 5774 5770 5766 5763 5761 5759 5756 5753 5751 5748 5745 5743 5742 5741 5740 5740 5739 5739 5739 5739 5740 5740 5739 5738
5786 5791 5799 5806 5806 5807 5810 5806 5805 5803 5815 5820 5820 5815 5809 5804 5801 5799 5795 5790 5785 5779 5776 5774 5771 5767 5764 5761 5757 5755 5751 5750 5749 5748 5745 5742 5740 5738 5738 5737 5736 5736 5736 5736 5736 5737 5737 5736 5736
5787 5790 5792 5797 5801 5805 5799 5788 5785 5785 5801 5804 5801 5796 5794 5792 5791 5788 5785 5781 5776 5772 5768 5765 5764 5763 5760 5756 5752 5751 5748 5742 5740 5740 5738 5737 5735 5735 5734 5734 5734 5734 5733 5733 5733 5734 5733 5733 5733
5785 5780 5783 5790 5793 5797 5792 5767 5762 5775 5787 5786 5785 5783 5781 5779 5778 5775 5773 5770 5766 5762 5760 5757 5754 5752 5750 5748 5746 5744 5741 5736 5734 5733 5732 5731 5730 5730 5729 5729 5729 5730 5730 5730 5730 5729 5729 5728 5728
5775 5765 5759 5773 5779 5783 5773 5742 5753 5766 5772 5770 5771 5770 5768 5765 5764 5763 5761 5758 5756 5753 5750 5748 5745 5741 5740 5740 5738 5737 5734 5730 5728 5726 5727 5725 5725 5725 5724 5724 5726 5727 5726 5726 5725 5724 5723 5722 5722
5749 5743 5747 5756 5766 5767 5755 5735 5744 5756 5760 5758 5758 5758 5756 5753 5752 5752 5753 5750 5747 5745 5742 5739 5737 5734 5733 5735 5734 5731 5729 5727 5725 5722 5721 5721 5721 5720 5720 5720 5722 5722 5721 5721 5721 5719 5719 5717 5717
5740 5742 5743 5742 5749 5750 5738 5730 5737 5746 5749 5748 5747 5747 5746 5744 5742 5743 5743 5742 5739 5736 5734 5732 5730 5729 5729 5729 5728 5725 5722 5722 5721 5719 5717 5717 5717 5717 5716 5715 5717 5717 5715 5715 5714 5713 5713 5713 5713
5751 5745 5741 5744 5748 5737 5726 5724 5728 5735 5738 5737 5737 5736 5735 5734 5734 5734 5734 5733 5730 5728 5727 5725 5723 5722 5722 5722 5720 5716 5714 5714 5715 5714 5713 5712 5711 5712 5712 5710 5710 5711 5710 5710 5710 5708 5707 5706 5707
5748 5742 5739 5738 5743 5731 5719 5717 5722 5726 5726 5727 5727 5726 5725 5724 5725 5724 5724 5722 5721 5720 5720 5718 5717 5715 5714 5714 5712 5710 5708 5709 5708 5708 5709 5708 5707 5707 5707 5706 5706 5706 5705 5704 5703 5703 5702 5702 5702
5751 5746 5745 5737 5732 5726 5717 5707 5710 5715 5718 5719 5719 5718 5717 5716 5713 5712 5711 5710 5711 5710 5710 5710 5707 5707 5706 5706 5706 5705 5703 5703 5702 5701 5700 5700 5701 5703 5704 5703 5702 5700 5699 5699 5699 5699 5698 5696 5697
5746 5759 5755 5744 5723 5708 5714 5693 5698 5702 5703 5706 5706 5706 5705 5704 5703 5701 5699 5699 5700 5700 5700 5699 5697 5697 5698 5697 5696 5695 5692 5691 5691 5692 5692 5694 5695 5697 5697 5696 5696 5694 5693 5693 5694 5695 5694 5694 5692
5756 5758 5750 5739 5723 5705 5703 5692 5690 5694 5691 5694 5697 5697 5697 5696 5694 5693 5691 5690 5690 5690 5689 5688 5687 5687 5687 5687 5685 5683 5682 5681 5682 5683 5684 5686 5688 5689 5689 5689 5689 5688 5688 5688 5689 5689 5689 5690 5690
5762 5749 5736 5720 5709 5693 5696 5690 5685 5687 5690 5690 5691 5691 5691 5689 5687 5685 5684 5683 5681 5681 5679 5678 5676 5675 5674 5673 5672 5671 5670 5670 5670 5671 5672 5674 5675 5677 5679 5680 5680 5681 5681 5681 5682 5683 5684 5685 5686
5749 5726 5701 5697 5685 5686 5695 5688 5685 5695 5696 5692 5688 5685 5684 5682 5679 5676 5675 5673 5672 5671 5669 5667 5664 5663 5662 5660 5659 5658 5657 5657 5657 5658 5659 5660 5661 5663 5665 5667 5668 5670 5672 5674 5675 5677 5678 5679 5680
5739 5725 5696 5685 5679 5680 5688 5682 5686 5694 5694 5690 5686 5681 5678 5675 5671 5668 5666 5664 5662 5661 5659 5656 5653 5651 5650 5648 5646 5644 5643 5642 5642 5642 5643 5645 5646 5649 5651 5653 5656 5658 5662 5665 5667 5669 5671 5673 5674
5734 5716 5713 5690 5684 5673 5676 5683 5688 5689 5684 5681 5677 5673 5668 5666 5663 5661 5658 5655 5652 5649 5647 5643 5640 5638 5636 5633 5631 5629 5628 5627 5627 5627 5627 5628 5630 5633 5636 5638 5641 5645 5648 5652 5656 5659 5662 5664 5667
5733 5716 5698 5685 5672 5666 5671 5670 5664 5670 5669 5669 5665 5662 5659 5657 5654 5651 5648 5644 5640 5636 5633 5630 5627 5624 5622 5620 5617 5617 5614 5613 5612 5610 5610 5611 5613 5615 5617 5620 5624 5629 5633 5637 5642 5647 5651 5654 5658
5719 5709 5690 5675 5673 5662 5655 5657 5665 5661 5660 5657 5655 5652 5649 5646 5642 5638 5633 5629 5624 5620 5616 5612 5610 5607 5606 5606 5605 5603 5602 5600 5598 5596 5596 5596 5596 5597 5600 5602 5606 5611 5616 5621 5626 5631 5637 5642 5647
5716 5703 5691 5677 5668 5658 5648 5648 5661 5657 5655 5651 5647 5644 5640 5635 5630 5625 5620 5614 5609 5605 5602 5598 5596 5594 5593 5592 5591 5589 5588 5586 5585 5584 5583 5582 5581 5582 5583 5585 5588 5592 5597 5602 5608 5614 5621 5627 5633